This is the latest recevied weather packets stored in our database for station/object AF5AA. If no packets are shown the sender has not sent any weather packets the latest 10 day(s).
| Time | Temp. | Humidity | Pressure | Rain* | Wind** | Luminosity | Snow |
|---|---|---|---|---|---|---|---|
| 1777587537 | 16.11° C | 99% | 1010.9 hPa | 0 mm | - | 14 W/m² | - |
| 1777587234 | 16.67° C | 99% | 1010.6 hPa | 0 mm | - | 29 W/m² | - |
| 1777586929 | 16.11° C | 99% | 1010.8 hPa | 0 mm | - | 36 W/m² | - |
| 1777586625 | 16.11° C | 99% | 1011 hPa | 0 mm | - | 32 W/m² | - |
| 1777586321 | 16.11° C | 99% | 1011.2 hPa | 0 mm | - | 52 W/m² | - |
| 1777586019 | 16.11° C | 99% | 1011.6 hPa | 0 mm | - | 24 W/m² | - |
| 1777585718 | 16.11° C | 99% | 1011.6 hPa | 0 mm | - | 30 W/m² | - |
| 1777585413 | 16.11° C | 99% | 1011.2 hPa | 0 mm | - | 25 W/m² | - |
| 1777585108 | 16.11° C | 99% | 1011.4 hPa | 0 mm | - | 25 W/m² | - |
| 1777584805 | 16.67° C | 99% | 1011.1 hPa | 0 mm | - | 39 W/m² | - |
| 1777584503 | 16.11° C | 99% | 1011.3 hPa | 0 mm | - | 25 W/m² | - |
| 1777584199 | 16.11° C | 99% | 1011.5 hPa | 0 mm | - | 22 W/m² | - |
| 1777583898 | 16.11° C | 99% | 1011.8 hPa | 0 mm | - | 16 W/m² | - |
| 1777583594 | 16.11° C | 99% | 1011.7 hPa | 0 mm | - | 32 W/m² | - |
| 1777583293 | 16.11° C | 99% | 1011.6 hPa | 0 mm | - | 34 W/m² | - |
| 1777582988 | 16.67° C | 99% | 1011.9 hPa | 0 mm | - | 48 W/m² | - |
| 1777582686 | 16.11° C | 99% | 1012 hPa | 0 mm | - | 40 W/m² | - |
| 1777582381 | 16.11° C | 99% | 1012.1 hPa | 0 mm | - | 42 W/m² | - |
| 1777582079 | 16.67° C | 99% | 1012.2 hPa | 1.78 mm | - | 53 W/m² | - |
| 1777581774 | 16.67° C | 99% | 1011.9 hPa | 1.78 mm | - | 47 W/m² | - |
| 1777581473 | 16.67° C | 99% | 1011.9 hPa | 0 mm | - | 39 W/m² | - |
| 1777581168 | 16.67° C | 99% | 1012.5 hPa | 0 mm | - | 35 W/m² | - |
| 1777580862 | 16.67° C | 98% | 1012.6 hPa | 0 mm | - | 23 W/m² | - |
| 1777580557 | 16.67° C | 99% | 1013 hPa | 0 mm | - | 39 W/m² | - |
| 1777580253 | 16.67° C | 98% | 1013 hPa | 0 mm | - | 40 W/m² | - |
* Rain latest hour (hover to see other rain measurements)
** Current wind speed in m/s (hover to see current wind gust speed)